{"data":{"norad_id":46809,"epoch":"2026-09-20T04:48:17.807040Z","epoch_age_seconds":72030,"freshness":"FRESH","line1":"1 46809U 20076C   26263.20020610  .00001663  00000+0  12305-3 0  9991","line2":"2 46809  34.9954 231.6126 0006442 190.0871 169.9708 15.03058180322442","mean_motion":15.0305818,"eccentricity":0.0006442,"inclination_deg":34.9954,"raan_deg":231.6126,"arg_perigee_deg":190.0871,"mean_anomaly_deg":169.9708,"bstar":0.00012305,"rev_number":32244,"period_min":95.804674706604,"perigee_km":553.00480708964,"apogee_km":561.94064666174,"semimajor_km":6935.6097268757,"source":"CELESTRAK","updated_at":"2026-09-20T09:00:14.798773Z"}}